Location: Trois-Rivi�res
(46.3500°N, 72.5500°W)
Time: 05:35:22
(UTC-04:00)

Envisat - Pass Details

Date: 11 October 2017
Orbit: 764 x 766 km, 98.2° (Epoch: 23 October)

Event Time Altitude Azimuth Distance (km) Brightness Sun altitude
Exits shadow 18:50:30 - 89° (E) 2,360 4.8 -7.7°
Reaches altitude 10° 18:50:46 10° 86° (E) 2,306 4.8 -7.7°
Maximum altitude 18:53:16 14° 56° (ENE) 2,047 4.7 -8.2°
Drops below altitude 10° 18:55:47 10° 26° (NNE) 2,312 5.2 -8.6°
Sets 18:59:12 0° 2° (N) 3,244 6.2 -9.2°
